Powrót do katalogu

FLOCK 4Q 7

AktywnyNaukaSSO
NORAD 58318·PAYLOAD·🇺🇸 United States

Wystrzelony Nov 11, 2023 z Vandenberg Space Force Base

Loading…

Następne Przeloty (najbliższe 24 godziny)

TLE

ŚwieżeSource: Space-Track

Epoka: Sep 12, 2026, 05:09 UTC

1 58318U 23174BQ  26255.21460223  .00022684  00000-0  25841-3 0  9997
2 58318  97.3959 350.0129 0004886 169.5544 190.5816 15.62259300159300

Śledź FLOCK 4Q 7 w czasie rzeczywistym z AllMySat

Download on the App Store